Temp
-13 -13 -12 -12 -11 -11 -11 -11 -11 -11 -10 -10 -10 -10 -10 -10 -9 -9 -9 -9 -9 -9 -8 -8 -8 -8 -8 -8 -8 -8 -8 -8 -8 -8 -8 -8 -8 -8 -8 -8 -8 -9 -9 -9 -9 -9 -9
-13 -13 -12 -12 -12 -11 -11 -11 -11 -11 -11 -11 -11 -10 -10 -10 -10 -9 -9 -9 -9 -9 -9 -8 -8 -8 -8 -8 -8 -8 -8 -8 -8 -8 -8 -8 -8 -8 -8 -9 -9 -9 -9 -9 -9 -9 -9
-13 -13 -13 -12 -12 -12 -12 -11 -11 -11 -11 -11 -11 -11 -10 -10 -10 -10 -10 -9 -9 -9 -9 -8 -8 -8 -8 -8 -8 -8 -8 -8 -8 -8 -8 -8 -9 -9 -9 -9 -9 -9 -9 -9 -9 -9 -9
-13 -13 -13 -13 -12 -12 -12 -12 -11 -11 -11 -11 -11 -11 -10 -10 -10 -10 -10 -10 -10 -9 -9 -9 -8 -8 -8 -8 -8 -8 -8 -8 -8 -9 -9 -9 -9 -9 -9 -9 -9 -9 -9 -9 -9 -9 -9
-13 -13 -13 -13 -12 -12 -12 -12 -12 -12 -11 -11 -11 -11 -11 -10 -10 -10 -10 -10 -10 -10 -9 -9 -9 -8 -9 -9 -9 -9 -9 -9 -9 -9 -9 -9 -9 -9 -9 -9 -9 -9 -9 -9 -9 -9 -9
-13 -13 -13 -12 -12 -12 -12 -12 -12 -12 -12 -11 -11 -11 -11 -11 -11 -10 -10 -10 -10 -10 -10 -10 -9 -9 -9 -9 -9 -9 -9 -9 -9 -9 -9 -9 -9 -9 -9 -9 -9 -9 -9 -10 -9 -9 -9
-13 -13 -12 -12 -12 -12 -12 -12 -12 -12 -12 -12 -11 -11 -11 -11 -11 -11 -10 -10 -10 -10 -10 -10 -10 -10 -10 -10 -10 -10 -10 -10 -9 -9 -10 -10 -10 -10 -10 -10 -10 -10 -9 -9 -9 -9 -9
-13 -13 -12 -12 -12 -12 -12 -12 -12 -12 -12 -12 -11 -11 -11 -11 -11 -11 -11 -11 -11 -10 -10 -10 -10 -10 -10 -10 -10 -10 -10 -10 -10 -10 -10 -10 -10 -10 -10 -10 -10 -10 -10 -9 -9 -9 -9
-13 -13 -12 -12 -12 -12 -12 -12 -12 -12 -12 -12 -12 -12 -11 -11 -11 -11 -11 -11 -11 -11 -10 -10 -10 -10 -10 -10 -10 -10 -10 -10 -10 -10 -10 -10 -10 -10 -10 -10 -10 -10 -10 -10 -9 -9 -9
-13 -13 -13 -12 -12 -12 -12 -12 -12 -12 -12 -12 -12 -12 -12 -11 -11 -11 -11 -11 -11 -11 -10 -10 -10 -10 -10 -10 -10 -10 -10 -10 -11 -10 -10 -11 -11 -11 -11 -11 -10 -10 -10 -10 -10 -10 -9
-13 -13 -13 -13 -13 -13 -12 -12 -12 -12 -12 -12 -12 -12 -12 -12 -12 -11 -11 -11 -11 -11 -11 -10 -10 -10 -10 -10 -10 -10 -11 -11 -11 -11 -11 -11 -11 -11 -11 -11 -11 -11 -11 -11 -10 -10 -10
-13 -13 -13 -13 -13 -13 -13 -12 -12 -12 -12 -12 -12 -12 -12 -12 -12 -12 -11 -11 -11 -11 -11 -11 -11 -11 -11 -11 -11 -11 -11 -11 -11 -11 -11 -11 -11 -11 -11 -11 -11 -11 -11 -11 -11 -11 -10
-13 -13 -13 -13 -13 -13 -13 -13 -12 -12 -12 -12 -12 -12 -12 -12 -12 -12 -12 -11 -11 -11 -11 -11 -11 -11 -11 -11 -11 -11 -11 -11 -11 -11 -11 -11 -11 -11 -11 -12 -12 -12 -12 -12 -12 -12 -11
-13 -13 -13 -13 -13 -13 -13 -13 -13 -13 -13 -13 -12 -12 -12 -12 -12 -12 -12 -12 -11 -11 -11 -11 -11 -11 -11 -11 -11 -11 -11 -11 -11 -11 -11 -11 -11 -11 -12 -12 -12 -12 -13 -13 -13 -12 -12
-14 -13 -13 -13 -13 -13 -13 -13 -13 -13 -13 -13 -12 -12 -12 -12 -12 -12 -12 -12 -12 -12 -12 -12 -12 -12 -12 -12 -12 -12 -12 -12 -12 -12 -12 -12 -11 -12 -12 -12 -13 -13 -13 -14 -14 -13 -13
-14 -13 -13 -13 -13 -13 -13 -13 -13 -13 -13 -13 -13 -13 -12 -12 -12 -12 -12 -12 -12 -12 -12 -12 -12 -12 -12 -12 -12 -12 -12 -12 -12 -12 -12 -12 -12 -12 -12 -13 -13 -14 -14 -14 -14 -15 -14
-14 -14 -13 -13 -13 -13 -13 -13 -13 -13 -13 -12 -12 -13 -13 -13 -12 -12 -12 -12 -12 -12 -13 -12 -12 -12 -12 -12 -12 -12 -12 -12 -13 -13 -13 -13 -13 -12 -12 -13 -14 -14 -14 -15 -15 -15 -15
-14 -14 -14 -13 -13 -13 -13 -13 -13 -13 -13 -13 -12 -12 -13 -13 -13 -12 -12 -12 -12 -12 -13 -13 -12 -13 -13 -13 -13 -13 -13 -13 -13 -13 -13 -13 -13 -13 -13 -13 -13 -14 -15 -16 -16 -16 -16
-14 -14 -14 -13 -13 -13 -13 -13 -13 -13 -13 -13 -13 -12 -13 -13 -12 -13 -13 -13 -13 -12 -13 -13 -13 -13 -13 -13 -13 -13 -13 -13 -14 -14 -14 -14 -14 -14 -13 -13 -14 -15 -15 -15 -16 -17 -16
-14 -15 -14 -14 -14 -13 -13 -13 -13 -13 -13 -13 -13 -13 -13 -13 -13 -13 -13 -13 -13 -13 -13 -13 -13 -13 -13 -13 -13 -13 -13 -14 -15 -15 -15 -15 -15 -15 -14 -15 -15 -15 -15 -15 -16 -16 -16
-15 -15 -14 -14 -14 -14 -14 -14 -14 -14 -14 -14 -13 -13 -13 -13 -14 -13 -13 -13 -13 -13 -14 -14 -13 -14 -14 -14 -14 -14 -15 -15 -15 -15 -15 -16 -15 -16 -15 -15 -16 -16 -15 -15 -16 -15 -17
-15 -15 -15 -14 -14 -14 -14 -14 -14 -14 -14 -15 -14 -13 -13 -13 -13 -14 -14 -13 -14 -14 -14 -14 -14 -14 -15 -14 -15 -15 -16 -15 -15 -15 -16 -16 -16 -16 -15 -16 -17 -16 -15 -16 -16 -17 -17
-15 -15 -15 -15 -15 -15 -15 -15 -14 -14 -15 -15 -15 -15 -14 -14 -14 -15 -15 -15 -15 -15 -15 -15 -15 -15 -15 -16 -17 -17 -16 -16 -16 -16 -16 -16 -17 -17 -16 -17 -18 -17 -15 -17 -17 -18 -18
-16 -15 -15 -15 -15 -15 -15 -15 -14 -15 -15 -15 -15 -15 -15 -14 -14 -14 -14 -15 -14 -15 -15 -15 -16 -16 -16 -17 -17 -17 -17 -17 -17 -17 -17 -17 -17 -18 -18 -18 -19 -16 -17 -17 -17 -18 -19
-16 -16 -16 -16 -16 -15 -15 -15 -15 -15 -15 -15 -15 -15 -15 -14 -14 -15 -15 -15 -15 -16 -16 -15 -15 -16 -17 -17 -18 -18 -17 -17 -16 -16 -17 -18 -19 -19 -19 -19 -19 -18 -18 -19 -19 -19 -19
-16 -16 -16 -16 -16 -16 -16 -15 -15 -15 -16 -15 -15 -15 -15 -15 -15 -15 -15 -16 -16 -16 -16 -17 -17 -17 -18 -20 -20 -20 -20 -19 -19 -18 -17 -18 -19 -20 -20 -20 -20 -20 -19 -20 -19 -20 -19
-20 -20 -20 -20 -20 -20 -19 -19 -18 -18 -17 -18 -17 -16 -16 -16 -16 -16 -16 -16 -17 -17 -17 -17 -17 -18 -19 -19 -21 -21 -21 -21 -21 -20 -19 -19 -19 -20 -20 -21 -21 -20 -21 -21 -21 -21 -21
-21 -22 -22 -22 -22 -22 -22 -22 -22 -22 -22 -22 -22 -21 -20 -19 -19 -20 -20 -20 -19 -19 -18 -18 -17 -18 -18 -20 -22 -22 -21 -21 -21 -21 -21 -20 -21 -21 -21 -22 -21 -21 -22 -22 -22 -21 -22
-22 -22 -23 -23 -23 -23 -23 -23 -23 -23 -23 -23 -23 -23 -23 -23 -23 -23 -24 -24 -23 -22 -21 -21 -20 -20 -20 -22 -23 -22 -22 -21 -21 -21 -21 -22 -22 -23 -22 -22 -21 -21 -21 -21 -22 -23 -23
Height
5804 5806 5806 5807 5808 5809 5811 5812 5814 5815 5816 5817 5817 5818 5818 5820 5821 5823 5825 5826 5827 5828 5829 5830 5832 5832 5832 5833 5833 5832 5831 5831 5831 5830 5828 5827 5826 5824 5823 5820 5819 5817 5816 5814 5813 5811 5809
5807 5808 5808 5809 5810 5811 5812 5813 5814 5815 5816 5816 5817 5818 5819 5821 5822 5824 5825 5826 5827 5828 5828 5829 5830 5831 5831 5832 5831 5830 5830 5829 5829 5827 5826 5825 5824 5822 5820 5818 5816 5814 5813 5811 5809 5807 5805
5809 5810 5810 5811 5812 5812 5813 5814 5814 5815 5816 5816 5817 5818 5820 5821 5822 5823 5824 5825 5825 5826 5827 5828 5828 5829 5829 5830 5828 5828 5828 5827 5826 5825 5824 5822 5821 5819 5817 5815 5813 5811 5810 5807 5806 5804 5803
5811 5811 5812 5813 5813 5813 5814 5814 5815 5815 5816 5817 5817 5818 5819 5820 5821 5822 5823 5824 5825 5825 5825 5826 5826 5827 5827 5826 5826 5825 5824 5824 5822 5821 5820 5818 5816 5815 5813 5812 5810 5808 5806 5804 5802 5800 5798
5811 5812 5813 5813 5814 5814 5814 5814 5814 5815 5815 5816 5817 5818 5818 5819 5820 5821 5822 5823 5823 5823 5823 5823 5824 5824 5824 5823 5822 5821 5820 5819 5818 5817 5815 5814 5812 5810 5809 5807 5805 5803 5801 5800 5798 5796 5794
5812 5812 5813 5813 5814 5814 5814 5814 5814 5815 5815 5815 5816 5816 5817 5818 5819 5820 5821 5821 5821 5821 5820 5820 5820 5821 5820 5820 5819 5817 5817 5815 5814 5812 5811 5809 5807 5805 5803 5801 5800 5798 5796 5794 5792 5792 5790
5811 5812 5812 5813 5813 5814 5814 5814 5814 5814 5814 5815 5815 5815 5816 5816 5817 5818 5819 5819 5820 5819 5817 5817 5817 5816 5816 5815 5814 5813 5812 5811 5809 5808 5806 5804 5802 5800 5798 5796 5794 5792 5790 5788 5786 5783 5782
5809 5810 5811 5811 5811 5812 5812 5812 5812 5812 5812 5813 5813 5813 5814 5814 5814 5815 5815 5814 5814 5815 5814 5813 5812 5812 5811 5810 5809 5808 5807 5806 5804 5802 5800 5799 5797 5794 5792 5790 5788 5786 5783 5781 5780 5776 5774
5807 5808 5808 5809 5809 5809 5809 5810 5810 5810 5810 5810 5810 5810 5811 5811 5811 5811 5811 5810 5810 5809 5809 5809 5808 5807 5806 5805 5803 5802 5801 5799 5798 5796 5795 5793 5791 5788 5787 5784 5782 5780 5777 5775 5772 5768 5766
5804 5805 5805 5805 5806 5806 5806 5806 5806 5806 5806 5806 5806 5806 5807 5807 5808 5806 5806 5805 5805 5804 5803 5804 5802 5801 5800 5799 5797 5796 5794 5794 5792 5790 5788 5787 5784 5782 5780 5778 5775 5774 5771 5767 5763 5760 5757
5801 5802 5802 5803 5803 5803 5802 5802 5802 5802 5802 5802 5802 5802 5802 5803 5802 5802 5802 5801 5800 5799 5797 5798 5797 5795 5794 5794 5792 5789 5788 5786 5785 5783 5782 5781 5777 5776 5774 5771 5768 5766 5762 5759 5755 5752 5749
5796 5797 5798 5798 5799 5799 5798 5798 5798 5798 5798 5798 5798 5798 5798 5798 5797 5796 5795 5795 5795 5795 5791 5791 5790 5789 5788 5786 5784 5783 5781 5779 5778 5776 5774 5773 5770 5768 5766 5762 5760 5756 5753 5749 5746 5743 5740
5791 5791 5792 5792 5793 5793 5793 5793 5793 5793 5792 5792 5792 5792 5791 5791 5790 5789 5789 5788 5788 5787 5786 5785 5783 5781 5780 5779 5777 5775 5774 5772 5770 5767 5767 5764 5762 5759 5757 5754 5750 5747 5743 5738 5735 5732 5730
5784 5785 5785 5785 5786 5786 5786 5786 5786 5786 5786 5785 5784 5784 5783 5782 5782 5781 5780 5780 5779 5780 5778 5775 5774 5773 5772 5771 5769 5767 5765 5764 5760 5758 5755 5754 5754 5751 5748 5744 5741 5737 5734 5729 5720 5721 5720
5776 5777 5778 5778 5778 5778 5779 5779 5778 5778 5778 5777 5776 5775 5775 5774 5773 5773 5772 5770 5771 5771 5769 5767 5765 5762 5762 5761 5759 5756 5755 5754 5752 5750 5746 5742 5742 5739 5736 5734 5731 5728 5723 5718 5709 5708 5703
5767 5768 5769 5769 5769 5769 5769 5769 5769 5768 5768 5769 5768 5766 5765 5764 5764 5763 5762 5761 5761 5760 5757 5756 5754 5753 5751 5751 5749 5746 5744 5744 5742 5739 5735 5732 5729 5728 5725 5722 5720 5714 5711 5706 5699 5690 5685
5758 5759 5759 5759 5759 5759 5759 5758 5758 5758 5757 5757 5757 5757 5754 5753 5752 5751 5750 5750 5749 5748 5746 5744 5743 5741 5740 5737 5736 5733 5732 5732 5728 5725 5722 5719 5716 5719 5712 5710 5706 5702 5698 5693 5686 5679 5672
5748 5748 5747 5747 5748 5748 5747 5747 5746 5746 5745 5744 5745 5745 5743 5741 5741 5739 5739 5737 5736 5736 5734 5731 5729 5728 5727 5724 5721 5719 5720 5716 5713 5710 5708 5703 5699 5700 5699 5694 5691 5687 5683 5678 5669 5667 5661
5738 5737 5736 5735 5735 5735 5734 5733 5732 5731 5731 5730 5729 5730 5730 5728 5727 5726 5724 5723 5721 5721 5720 5718 5716 5715 5712 5710 5705 5705 5703 5703 5699 5696 5690 5687 5683 5681 5681 5680 5677 5671 5668 5664 5658 5653 5649
5726 5726 5725 5724 5723 5722 5721 5720 5719 5717 5716 5715 5716 5716 5716 5714 5712 5711 5709 5709 5707 5705 5704 5702 5701 5699 5695 5694 5691 5687 5686 5686 5683 5679 5675 5670 5669 5665 5664 5664 5658 5655 5655 5650 5644 5638 5637
5716 5715 5713 5712 5710 5710 5708 5706 5706 5703 5701 5699 5698 5699 5700 5702 5699 5696 5693 5694 5692 5690 5688 5684 5683 5681 5677 5675 5673 5670 5670 5668 5666 5664 5659 5654 5652 5649 5649 5646 5641 5639 5640 5637 5626 5626 5619
5705 5703 5701 5699 5697 5695 5693 5692 5691 5689 5686 5684 5681 5680 5681 5684 5683 5681 5677 5678 5675 5673 5670 5670 5665 5664 5660 5657 5655 5655 5653 5651 5650 5647 5643 5639 5633 5631 5632 5630 5624 5620 5628 5621 5618 5613 5605
5691 5689 5686 5684 5681 5679 5676 5675 5674 5673 5670 5667 5665 5663 5661 5664 5662 5660 5661 5660 5658 5653 5654 5652 5647 5645 5643 5642 5639 5638 5635 5634 5632 5630 5627 5623 5620 5614 5610 5615 5604 5600 5614 5610 5604 5600 5593
5676 5673 5670 5667 5664 5661 5659 5657 5656 5654 5651 5650 5648 5647 5645 5645 5642 5638 5638 5637 5637 5635 5630 5633 5630 5627 5627 5623 5619 5616 5616 5615 5614 5614 5612 5608 5603 5598 5591 5595 5580 5591 5591 5587 5584 5582 5576
5661 5658 5654 5649 5646 5643 5640 5637 5635 5632 5629 5628 5628 5627 5625 5627 5624 5621 5616 5615 5616 5612 5608 5608 5612 5608 5605 5604 5598 5593 5593 5592 5596 5597 5597 5593 5588 5581 5576 5571 5566 5570 5573 5568 5563 5560 5557
5644 5640 5635 5631 5626 5623 5619 5616 5614 5611 5606 5604 5604 5602 5602 5605 5606 5597 5596 5592 5587 5582 5586 5588 5590 5589 5588 5584 5581 5574 5573 5573 5569 5569 5576 5577 5569 5563 5559 5553 5547 5555 5553 5549 5544 5537 5540
5629 5624 5619 5614 5609 5604 5599 5595 5591 5587 5584 5579 5577 5577 5576 5580 5582 5573 5568 5567 5555 5554 5555 5565 5564 5567 5563 5561 5560 5557 5554 5557 5550 5551 5555 5553 5548 5543 5541 5535 5532 5533 5533 5531 5526 5525 5519
5615 5609 5604 5599 5595 5590 5586 5581 5575 5571 5567 5564 5559 5555 5552 5556 5559 5547 5537 5533 5529 5524 5527 5536 5536 5540 5540 5539 5540 5541 5538 5538 5536 5537 5534 5535 5532 5529 5525 5522 5523 5521 5516 5517 5513 5506 5503
5606 5598 5591 5585 5580 5575 5571 5567 5562 5558 5554 5551 5549 5541 5540 5542 5541 5531 5520 5508 5510 5505 5500 5506 5508 5514 5513 5512 5520 5513 5512 5511 5514 5513 5516 5518 5516 5516 5514 5510 5502 5500 5498 5497 5494 5488 5485
Wind_Speed
12 10 10 10 10 10 10 10 10 10 10 9 9 10 11 12 12 11 10 10 10 8 6 3 2 3 4 4 6 7 8 10 12 13 14 15 15 15 16 15 15 14 14 14 15 15 15
9 8 8 7 7 7 7 7 8 9 10 10 11 11 12 11 11 11 11 11 10 9 7 4 4 4 5 7 9 10 11 13 13 15 16 16 16 16 17 16 15 14 15 14 14 15 17
7 8 8 7 7 7 8 9 9 9 10 11 12 13 12 12 12 12 12 12 11 9 8 7 6 7 7 10 10 12 13 15 16 17 17 18 18 18 17 16 15 15 16 16 15 16 17
7 8 8 7 6 7 8 9 10 11 11 11 12 12 12 12 12 12 12 12 12 11 10 9 10 11 11 12 13 15 16 17 18 19 20 20 21 20 19 18 17 17 17 17 18 19 19
8 8 8 7 7 8 8 8 8 9 10 11 12 12 12 13 13 13 14 13 12 11 11 11 12 14 14 15 15 17 17 18 20 21 22 23 24 23 22 20 20 19 19 18 19 20 20
10 10 9 8 8 9 8 9 9 9 10 10 11 12 12 13 13 13 14 13 13 12 12 13 14 15 16 16 17 19 20 21 22 23 24 25 25 24 24 23 22 21 20 21 23 20 22
12 12 12 12 12 12 11 11 11 11 11 12 12 12 12 13 14 14 15 15 15 16 15 15 17 18 18 19 21 22 23 25 25 26 27 27 26 26 26 25 24 23 23 24 25 27 27
14 14 15 15 16 15 15 15 15 14 13 14 14 15 15 16 17 17 18 18 18 18 18 19 20 21 22 23 24 25 26 27 28 28 28 28 28 28 27 27 26 25 26 28 28 31 32
15 16 17 18 18 17 17 17 17 17 17 17 17 17 17 18 19 20 21 21 21 21 21 21 22 23 24 25 26 26 27 28 28 29 29 29 28 28 28 27 28 27 30 30 33 34 34
15 16 18 19 19 19 19 18 18 18 19 20 20 20 21 21 21 22 22 21 21 22 23 23 23 25 25 25 26 27 28 28 30 30 30 28 29 28 28 29 31 30 32 34 36 38 39
18 18 19 20 19 20 20 20 20 20 20 21 21 21 20 21 22 22 22 22 23 23 27 25 23 24 25 26 27 29 30 31 30 29 30 29 30 30 30 32 33 34 36 38 39 40 41
24 23 23 23 22 22 22 21 21 22 22 22 23 23 24 24 24 25 25 25 26 27 29 29 29 29 29 30 30 30 31 31 31 31 31 31 32 33 34 35 36 38 40 42 43 43 44
29 29 28 28 27 27 27 26 26 26 27 27 27 28 28 28 28 29 30 30 31 31 32 33 31 31 31 31 31 32 32 32 33 35 33 35 35 37 38 39 40 42 42 45 47 47 48
34 34 33 33 33 32 32 32 32 32 32 33 32 33 33 32 33 33 34 35 36 33 34 36 35 36 35 33 34 35 36 36 38 38 40 41 40 40 43 43 44 45 44 44 49 51 51
36 36 36 36 36 37 37 37 36 37 37 37 38 38 38 38 38 38 39 40 39 37 39 39 39 40 38 37 39 40 40 40 41 40 43 46 46 46 47 47 47 47 47 48 52 54 56
39 39 40 40 40 40 40 40 40 39 39 39 39 40 41 41 41 42 43 43 40 40 42 42 43 43 43 42 43 44 45 45 45 45 47 50 51 50 50 50 49 49 51 52 54 59 62
42 42 43 44 44 44 44 44 44 44 44 43 42 42 44 45 45 46 47 46 45 45 46 48 47 47 47 48 48 50 50 49 50 50 51 51 53 52 53 51 50 53 56 55 57 61 58
44 45 46 47 48 48 48 48 48 48 48 49 48 47 47 48 49 49 49 50 50 49 50 51 51 50 50 51 54 55 54 54 56 56 55 56 58 58 57 58 59 59 58 56 59 57 53
42 43 47 50 51 51 51 52 53 52 52 52 54 53 52 53 54 53 54 54 54 54 53 54 54 53 54 56 60 60 61 59 58 57 60 60 61 61 62 63 61 59 54 52 51 50 52
46 46 47 48 50 51 54 54 54 56 56 57 57 56 54 54 54 55 54 55 54 55 56 57 58 60 62 63 62 62 62 58 57 58 60 62 62 64 64 61 58 54 51 52 53 56 56
47 45 46 48 52 51 48 51 55 55 55 57 58 58 58 55 53 55 58 60 62 62 60 61 62 61 60 59 58 58 53 53 55 55 58 60 59 60 57 54 55 57 54 54 59 59 59
44 46 48 50 52 51 51 52 52 52 53 54 59 62 63 62 60 57 58 60 59 58 60 59 61 60 60 63 61 59 57 58 58 59 59 58 59 58 57 58 56 57 60 59 58 58 59
46 47 48 51 53 54 55 55 56 56 56 58 60 62 65 62 63 64 63 61 62 63 63 61 63 64 65 64 62 61 61 62 62 61 61 61 62 63 64 60 60 66 59 54 57 59 60
50 52 53 54 56 57 58 59 60 61 63 64 65 65 65 67 68 69 69 68 68 67 69 67 67 66 67 67 66 67 65 66 66 65 65 66 66 63 61 58 68 68 62 65 67 63 62
60 61 62 63 64 65 66 67 67 68 69 69 69 70 71 71 72 73 75 75 74 73 73 75 74 72 69 68 70 71 73 72 72 69 65 64 64 64 63 66 70 72 72 69 67 65 63
66 68 70 71 73 74 74 76 77 78 80 80 79 79 79 77 77 80 80 81 82 83 80 77 75 75 71 68 65 70 72 78 76 77 73 68 69 65 67 70 74 70 68 65 63 63 63
50 51 52 53 55 55 58 62 67 70 72 72 78 80 83 83 82 84 87 88 87 88 90 86 83 80 77 75 70 73 77 74 69 64 61 66 69 67 63 67 72 53 60 55 58 59 52
49 51 52 52 51 49 47 47 47 46 45 43 43 49 56 60 56 58 65 68 75 81 86 86 89 84 84 74 66 56 57 52 57 61 65 65 66 62 61 60 53 56 49 41 47 49 50
48 48 49 50 50 49 47 45 45 45 45 44 42 45 43 37 32 35 37 44 49 57 66 68 75 76 76 74 68 68 64 64 62 61 59 46 36 40 41 41 41 41 44 49 47 56 51
Wind_Direction
112 113 120 130 142 151 160 171 182 190 191 191 180 165 151 151 153 154 160 164 163 159 156 176 211 247 261 260 279 294 306 308 308 308 311 315 315 316 315 312 308 306 302 300 297 296 296
127 129 129 134 146 160 170 184 195 200 196 190 181 171 163 164 163 170 171 175 175 175 173 197 237 264 277 278 285 294 298 298 298 300 302 302 304 307 310 307 303 302 300 298 299 300 301
152 146 140 144 154 164 170 182 187 182 180 180 178 176 173 177 180 181 182 187 189 191 198 217 243 268 277 277 281 287 289 290 293 295 297 299 300 301 302 300 297 295 296 295 296 296 296
175 164 158 166 171 173 175 172 175 186 183 182 183 183 185 188 191 194 197 202 205 210 217 228 249 260 265 271 276 277 281 286 289 291 294 294 295 297 297 292 287 288 290 292 294 300 299
199 188 184 185 193 199 190 176 172 176 181 189 191 194 194 195 201 205 211 214 220 226 233 240 250 259 263 270 273 276 281 285 288 291 291 291 291 292 291 287 285 285 287 286 288 293 294
215 211 207 207 212 214 207 200 195 192 190 193 195 194 197 204 211 218 226 232 237 243 246 251 257 263 270 274 277 279 283 285 287 288 287 287 288 289 289 285 286 286 288 291 293 291 291
228 228 226 229 235 232 228 223 219 215 211 211 209 213 217 222 230 236 241 247 252 255 258 259 264 270 274 277 280 282 284 286 286 286 285 286 286 288 287 285 287 288 291 290 290 293 296
240 237 240 242 243 243 241 238 236 232 231 229 226 226 230 235 240 245 249 254 259 261 264 266 269 273 275 277 279 280 282 283 282 282 284 284 286 286 285 285 286 287 288 289 293 295 299
249 247 247 248 250 248 245 244 244 242 242 242 243 244 246 248 251 254 257 260 262 264 267 270 271 273 274 276 277 278 279 279 280 281 282 283 284 283 285 285 285 287 288 290 293 296 300
252 256 256 255 254 252 249 247 247 247 247 248 251 254 256 257 257 259 261 263 266 268 270 271 272 276 276 276 276 278 276 277 277 279 280 281 282 284 285 287 289 289 290 293 296 298 300
246 247 252 256 256 255 253 252 252 252 252 252 254 255 256 259 262 265 267 269 271 274 275 276 278 279 278 276 276 275 277 277 276 277 280 283 283 285 287 287 288 291 292 293 294 295 297
249 248 249 251 253 254 255 255 256 255 254 255 256 258 260 262 263 266 268 269 272 274 279 281 281 281 279 278 277 276 277 277 279 280 282 284 287 288 288 289 290 290 292 293 292 293 295
253 252 253 253 253 254 255 256 255 256 257 257 258 260 261 263 264 266 268 269 271 274 280 280 282 282 281 280 278 277 276 277 279 281 283 283 284 287 287 288 290 292 293 292 290 291 297
256 256 257 257 257 257 257 258 259 259 259 261 260 261 262 264 265 267 269 270 270 275 275 278 279 279 279 278 277 276 277 278 279 281 282 282 284 286 288 289 290 290 290 289 290 294 295
257 259 260 260 260 261 261 260 260 261 262 263 265 266 268 268 269 270 270 270 274 275 275 276 277 277 277 277 277 276 276 277 278 281 282 284 285 285 285 287 288 292 291 289 292 294 294
255 258 260 261 261 261 262 263 263 263 263 264 266 268 269 268 269 270 271 272 275 275 275 275 276 277 278 277 276 277 277 279 279 279 279 280 281 282 285 287 291 290 289 291 293 293 294
260 261 261 262 263 263 263 263 264 265 266 265 264 266 268 270 272 273 273 274 273 273 275 276 277 278 279 280 280 280 281 283 281 280 280 282 281 284 285 288 286 288 289 288 288 288 290
264 265 266 265 265 265 265 265 265 265 266 267 266 265 266 267 268 270 272 273 274 275 275 276 277 278 279 280 281 282 284 283 284 283 282 282 283 284 285 285 288 290 289 287 285 288 284
265 269 267 267 267 268 270 271 271 269 268 268 269 269 268 270 270 269 271 272 273 274 275 275 276 278 278 280 281 283 282 281 280 281 281 281 282 283 283 286 290 287 284 285 284 282 281
268 273 273 273 272 273 272 270 271 272 272 272 271 271 271 271 272 273 274 274 276 277 277 277 277 277 278 279 279 280 280 280 279 278 278 279 280 282 284 285 282 282 284 284 281 280 284
273 276 279 281 278 279 279 275 271 273 276 275 276 273 272 271 273 274 276 276 275 277 278 278 278 278 278 277 276 277 279 277 277 279 278 279 281 280 282 281 280 281 282 282 280 285 284
276 274 275 276 277 278 279 274 274 274 275 275 278 279 276 272 270 271 273 277 275 274 275 275 276 277 275 276 276 277 276 276 276 276 276 277 278 279 278 279 277 277 281 280 283 284 283
282 282 280 279 279 276 274 272 271 270 269 269 271 274 274 275 274 275 274 272 274 275 274 275 275 275 275 276 275 274 274 274 276 276 275 276 279 279 279 278 277 276 283 280 280 282 283
280 279 279 279 278 278 277 277 276 275 274 273 272 271 272 274 275 276 276 277 275 272 273 274 274 275 276 276 274 273 273 273 273 274 276 278 278 278 278 277 276 284 281 281 286 285 283
278 277 276 276 275 275 275 275 275 274 274 273 272 272 273 273 274 274 275 275 273 273 272 275 276 276 275 272 274 275 274 270 272 273 273 274 273 273 275 276 278 280 286 288 289 288 286
283 283 282 280 279 278 277 276 275 275 275 274 273 272 271 270 271 272 272 272 271 270 269 268 268 269 267 268 270 271 272 275 275 276 275 273 272 273 274 275 278 287 287 290 288 284 285
296 294 293 291 289 288 287 286 284 283 282 282 279 277 275 272 272 272 271 271 272 271 269 268 267 267 268 268 261 263 267 272 273 274 266 269 272 276 273 280 290 286 281 283 285 284 282
308 302 298 296 294 293 292 293 294 294 295 297 299 295 291 286 286 284 281 277 271 271 270 268 268 268 267 264 264 265 257 256 259 259 263 265 267 265 275 286 273 280 283 279 278 278 281
315 311 302 295 292 291 291 292 293 294 295 296 297 297 299 302 307 307 293 281 280 276 276 272 271 267 263 260 250 245 244 244 247 252 257 255 259 267 272 262 261 267 267 274 259 280 284